sat.trackr.live / text

‹ back to catalog

STARLINK-36976

NORAD 68066 · 2026-041AC

PAYLOAD ACTIVE UNKNOWN

§ Identity

Operator
Country
US
Launch date
2026-03-02
Launch site
AFETR
Launch vehicle
Mass (kg)
RCS (m²)

Purposes: comms

External: N2YO · Heavens-Above · Gunter

§ Orbital elements

Epoch: 2026-09-20T04:23:40.513920Z

Period
93.85 min
Inclination
53.1560°
Eccentricity
0.0001120
Mean motion
15.34387498 rev/d
Perigee alt
462.0 km
Apogee alt
463.5 km
Semi-major
6,840.9 km
B*
4.5603e-4
RAAN
220.9683°
Arg perigee
100.8698°
Mean anomaly
259.2431°
Rev number
3,124

§ Raw data

STARLINK-369761 68066U 26041AC  26263.18310780  .00015056  00000+0  45603-3 0  99932 68066  53.1560 220.9683 0001120 100.8698 259.2431 15.34387498 31242

JSON: /api/v1/satellites/68066 · /tle

For live sub-satellite position, see the globe view (requires WebGL).

§ Visibility from observer

Set your observer location to see the next 7 days of passes ≥ 10°. The values pass through the URL so the page stays shareable.

No JS? Fill the form by hand. The geolocation button needs JavaScript.